Year,Month,Day,Hour,Minute,Value (Times are PST for temperature in C)
2015,05,25,00,00,12.70
2015,05,25,00,01,12.70
2015,05,25,00,02,12.70
2015,05,25,00,03,12.60
2015,05,25,00,04,12.60
2015,05,25,00,05,12.60
2015,05,25,00,06,12.60
2015,05,25,00,07,12.50
2015,05,25,00,08,12.50
2015,05,25,00,09,12.40
2015,05,25,00,10,12.40
2015,05,25,00,11,12.40
2015,05,25,00,12,12.40
2015,05,25,00,13,12.30
2015,05,25,00,14,12.30
2015,05,25,00,15,12.30
2015,05,25,00,16,12.30
2015,05,25,00,17,12.30
2015,05,25,00,18,12.30
2015,05,25,00,19,12.30
2015,05,25,00,20,12.30
2015,05,25,00,21,12.30
2015,05,25,00,22,12.30
2015,05,25,00,23,12.30
2015,05,25,00,24,12.30
2015,05,25,00,25,12.30
2015,05,25,00,26,12.30
2015,05,25,00,27,12.30
2015,05,25,00,28,12.30
2015,05,25,00,29,12.30
2015,05,25,00,30,12.30
2015,05,25,00,31,12.30
2015,05,25,00,32,12.30
2015,05,25,00,33,12.20
2015,05,25,00,34,12.20
2015,05,25,00,35,12.20
2015,05,25,00,36,12.20
2015,05,25,00,37,12.20
2015,05,25,00,38,12.20
2015,05,25,00,39,12.20
2015,05,25,00,40,12.20
2015,05,25,00,41,12.20
2015,05,25,00,42,12.20
2015,05,25,00,43,12.10
2015,05,25,00,44,12.10
2015,05,25,00,45,12.10
2015,05,25,00,46,12.10
2015,05,25,00,47,12.10
2015,05,25,00,48,12.00
2015,05,25,00,49,12.00
2015,05,25,00,50,12.00
2015,05,25,00,51,12.00
2015,05,25,00,52,12.00
2015,05,25,00,53,12.00
2015,05,25,00,54,12.00
2015,05,25,00,55,12.00
2015,05,25,00,56,11.90
2015,05,25,00,57,11.90
2015,05,25,00,58,12.00
2015,05,25,00,59,11.90
2015,05,25,01,00,11.90
2015,05,25,01,01,11.90
2015,05,25,01,02,11.90
2015,05,25,01,03,11.90
2015,05,25,01,04,11.90
2015,05,25,01,05,11.90
2015,05,25,01,06,11.90
2015,05,25,01,07,11.90
2015,05,25,01,08,11.90
2015,05,25,01,09,11.90
2015,05,25,01,10,11.90
2015,05,25,01,11,11.90
2015,05,25,01,12,11.90
2015,05,25,01,13,11.80
2015,05,25,01,14,11.80
2015,05,25,01,15,11.80
2015,05,25,01,16,11.80
2015,05,25,01,17,11.80
2015,05,25,01,18,11.80
2015,05,25,01,19,11.70
2015,05,25,01,20,11.70
2015,05,25,01,21,11.70
2015,05,25,01,22,11.70
2015,05,25,01,23,11.60
2015,05,25,01,24,11.60
2015,05,25,01,25,11.60
2015,05,25,01,26,11.60
2015,05,25,01,27,11.50
2015,05,25,01,28,11.50
2015,05,25,01,29,11.50
2015,05,25,01,30,11.40
2015,05,25,01,31,11.40
2015,05,25,01,32,11.40
2015,05,25,01,33,11.40
2015,05,25,01,34,11.40
2015,05,25,01,35,11.30
2015,05,25,01,36,11.30
2015,05,25,01,37,11.30
2015,05,25,01,38,11.30
2015,05,25,01,39,11.30
2015,05,25,01,40,11.30
2015,05,25,01,41,11.30
2015,05,25,01,42,11.30
2015,05,25,01,43,11.30
2015,05,25,01,44,11.30
2015,05,25,01,45,11.30
2015,05,25,01,46,11.30
2015,05,25,01,47,11.20
2015,05,25,01,48,11.20
2015,05,25,01,49,11.20
2015,05,25,01,50,11.20
2015,05,25,01,51,11.20
2015,05,25,01,52,11.10
2015,05,25,01,53,11.10
2015,05,25,01,54,11.10
2015,05,25,01,55,11.10
2015,05,25,01,56,11.10
2015,05,25,01,57,11.10
2015,05,25,01,58,11.10
2015,05,25,01,59,11.10
2015,05,25,02,00,11.10
2015,05,25,02,01,11.00
2015,05,25,02,02,11.00
2015,05,25,02,03,11.00
2015,05,25,02,04,11.00
2015,05,25,02,05,11.00
2015,05,25,02,06,11.00
2015,05,25,02,07,11.00
2015,05,25,02,08,11.00
2015,05,25,02,09,11.00
2015,05,25,02,10,11.00
2015,05,25,02,11,11.00
2015,05,25,02,12,11.00
2015,05,25,02,13,11.10
2015,05,25,02,14,11.10
2015,05,25,02,15,11.10
2015,05,25,02,16,11.10
2015,05,25,02,17,11.10
2015,05,25,02,18,11.10
2015,05,25,02,19,11.10
2015,05,25,02,20,11.20
2015,05,25,02,21,11.10
2015,05,25,02,22,11.10
2015,05,25,02,23,11.10
2015,05,25,02,24,11.10
2015,05,25,02,25,11.00
2015,05,25,02,26,11.00
2015,05,25,02,27,10.90
2015,05,25,02,28,10.90
2015,05,25,02,29,10.90
2015,05,25,02,30,10.90
2015,05,25,02,31,10.80
2015,05,25,02,32,10.80
2015,05,25,02,33,10.80
2015,05,25,02,34,10.80
2015,05,25,02,35,10.70
2015,05,25,02,36,10.70
2015,05,25,02,37,10.70
2015,05,25,02,38,10.60
2015,05,25,02,39,10.60
2015,05,25,02,40,10.60
2015,05,25,02,41,10.50
2015,05,25,02,42,10.50
2015,05,25,02,43,10.50
2015,05,25,02,44,10.40
2015,05,25,02,45,10.40
2015,05,25,02,46,10.40
2015,05,25,02,47,10.40
2015,05,25,02,48,10.30
2015,05,25,02,49,10.30
2015,05,25,02,50,10.30
2015,05,25,02,51,10.30
2015,05,25,02,52,10.20
2015,05,25,02,53,10.20
2015,05,25,02,54,10.20
2015,05,25,02,55,10.20
2015,05,25,02,56,10.10
2015,05,25,02,57,10.10
2015,05,25,02,58,10.10
2015,05,25,02,59,10.10
2015,05,25,03,00,10.10
2015,05,25,03,01,10.10
2015,05,25,03,02,10.10
2015,05,25,03,03,10.00
2015,05,25,03,04,10.00
2015,05,25,03,05,10.00
2015,05,25,03,06,10.00
2015,05,25,03,07,10.00
2015,05,25,03,08,10.00
2015,05,25,03,09,9.90
2015,05,25,03,10,9.90
2015,05,25,03,11,9.90
2015,05,25,03,12,9.90
2015,05,25,03,13,9.90
2015,05,25,03,14,9.90
2015,05,25,03,15,9.90
2015,05,25,03,16,9.80
2015,05,25,03,17,9.80
2015,05,25,03,18,9.80
2015,05,25,03,19,9.80
2015,05,25,03,20,9.80
2015,05,25,03,21,9.70
2015,05,25,03,22,9.70
2015,05,25,03,23,9.70
2015,05,25,03,24,9.70
2015,05,25,03,25,9.60
2015,05,25,03,26,9.60
2015,05,25,03,27,9.60
2015,05,25,03,28,9.60
2015,05,25,03,29,9.60
2015,05,25,03,30,9.60
2015,05,25,03,31,9.50
2015,05,25,03,32,9.50
2015,05,25,03,33,9.50
2015,05,25,03,34,9.50
2015,05,25,03,35,9.40
2015,05,25,03,36,9.40
2015,05,25,03,37,9.40
2015,05,25,03,38,9.40
2015,05,25,03,39,9.40
2015,05,25,03,40,9.40
2015,05,25,03,41,9.40
2015,05,25,03,42,9.30
2015,05,25,03,43,9.30
2015,05,25,03,44,9.30
2015,05,25,03,45,9.30
2015,05,25,03,46,9.30
2015,05,25,03,47,9.30
2015,05,25,03,48,9.30
2015,05,25,03,49,9.20
2015,05,25,03,50,9.20
2015,05,25,03,51,9.20
2015,05,25,03,52,9.20
2015,05,25,03,53,9.20
2015,05,25,03,54,9.20
2015,05,25,03,55,9.20
2015,05,25,03,56,9.20
2015,05,25,03,57,9.20
2015,05,25,03,58,9.20
2015,05,25,03,59,9.20
2015,05,25,04,00,9.20
2015,05,25,04,01,9.20
2015,05,25,04,02,9.10
2015,05,25,04,03,9.10
2015,05,25,05,02,8.60
2015,05,25,05,03,8.50
2015,05,25,05,04,8.50
2015,05,25,05,05,8.50
2015,05,25,05,06,8.50
2015,05,25,05,07,8.50
2015,05,25,05,08,8.40
2015,05,25,05,09,8.40
2015,05,25,05,10,8.40
2015,05,25,05,11,8.40
2015,05,25,05,12,8.40
2015,05,25,05,13,8.40
2015,05,25,05,14,8.40
2015,05,25,05,15,8.40
2015,05,25,05,16,8.40
2015,05,25,05,17,8.40
2015,05,25,05,18,8.30
2015,05,25,05,19,8.40
2015,05,25,05,20,8.30
2015,05,25,05,21,8.40
2015,05,25,05,22,8.40
2015,05,25,05,23,8.40
2015,05,25,05,24,8.40
2015,05,25,05,25,8.40
2015,05,25,05,26,8.40
2015,05,25,05,27,8.40
2015,05,25,05,28,8.50
2015,05,25,05,29,8.50
2015,05,25,05,30,8.50
2015,05,25,05,31,8.50
2015,05,25,05,32,8.50
2015,05,25,05,33,8.50
2015,05,25,05,34,8.50
2015,05,25,05,35,8.50
2015,05,25,05,36,8.50
2015,05,25,05,37,8.50
2015,05,25,05,38,8.50
2015,05,25,05,39,8.50
2015,05,25,05,40,8.50
2015,05,25,05,41,8.50
2015,05,25,05,42,8.50
2015,05,25,05,43,8.50
2015,05,25,05,44,8.50
2015,05,25,05,45,8.50
2015,05,25,05,46,8.40
2015,05,25,05,47,8.40
2015,05,25,05,48,8.40
2015,05,25,05,49,8.40
2015,05,25,05,50,8.40
2015,05,25,05,51,8.40
2015,05,25,05,52,8.40
2015,05,25,05,53,8.40
2015,05,25,05,54,8.40
2015,05,25,05,55,8.40
2015,05,25,05,56,8.40
2015,05,25,05,57,8.40
2015,05,25,05,58,8.40
2015,05,25,05,59,8.40
2015,05,25,06,00,8.40
2015,05,25,06,01,8.40
2015,05,25,06,02,8.40
2015,05,25,06,03,8.40
2015,05,25,06,04,8.40
2015,05,25,06,05,8.40
2015,05,25,06,06,8.40
2015,05,25,06,07,8.40
2015,05,25,06,08,8.40
2015,05,25,06,09,8.40
2015,05,25,06,10,8.40
2015,05,25,06,11,8.40
2015,05,25,06,12,8.40
2015,05,25,06,13,8.40
2015,05,25,06,14,8.50
2015,05,25,06,15,8.60
2015,05,25,06,16,8.60
2015,05,25,06,17,8.70
2015,05,25,06,18,8.70
2015,05,25,06,19,8.70
2015,05,25,06,20,8.80
2015,05,25,06,21,8.80
2015,05,25,06,22,8.80
2015,05,25,06,23,8.80
2015,05,25,06,24,8.80
2015,05,25,06,25,8.80
2015,05,25,06,26,8.90
2015,05,25,06,27,8.90
2015,05,25,06,28,8.90
2015,05,25,06,29,8.90
2015,05,25,06,30,8.90
2015,05,25,06,31,8.90
2015,05,25,06,32,8.90
2015,05,25,06,33,8.90
2015,05,25,06,34,9.00
2015,05,25,06,35,9.10
2015,05,25,06,36,9.10
2015,05,25,06,37,9.20
2015,05,25,06,38,9.20
2015,05,25,06,39,9.20
2015,05,25,06,40,9.30
2015,05,25,06,41,9.30
2015,05,25,06,42,9.30
2015,05,25,06,43,9.40
2015,05,25,06,44,9.40
2015,05,25,06,45,9.50
2015,05,25,06,46,9.50
2015,05,25,06,47,9.60
2015,05,25,06,48,9.60
2015,05,25,06,49,9.70
2015,05,25,06,50,9.80
2015,05,25,06,51,9.80
2015,05,25,06,52,9.90
2015,05,25,06,53,9.90
2015,05,25,06,54,10.00
2015,05,25,06,55,10.00
2015,05,25,06,56,10.10
2015,05,25,06,57,10.10
2015,05,25,06,58,10.20
2015,05,25,06,59,10.20
2015,05,25,07,00,10.30
2015,05,25,07,01,10.30
2015,05,25,07,02,10.30
2015,05,25,07,03,10.40
2015,05,25,07,04,10.40
2015,05,25,07,05,10.40
2015,05,25,07,06,10.50
2015,05,25,07,07,10.50
2015,05,25,07,08,10.60
2015,05,25,07,09,10.60
2015,05,25,07,10,10.60
2015,05,25,07,11,10.70
2015,05,25,07,12,10.70
2015,05,25,07,13,10.70
2015,05,25,07,14,10.80
2015,05,25,07,15,10.80
2015,05,25,07,16,10.80
2015,05,25,07,17,10.80
2015,05,25,07,18,10.90
2015,05,25,07,19,10.90
2015,05,25,07,20,10.90
2015,05,25,07,21,11.00
2015,05,25,07,22,11.00
2015,05,25,07,23,11.10
2015,05,25,07,24,11.10
2015,05,25,07,25,11.20
2015,05,25,07,26,11.20
2015,05,25,07,27,11.20
2015,05,25,07,28,11.30
2015,05,25,07,29,11.30
2015,05,25,07,30,11.30
2015,05,25,07,31,11.40
2015,05,25,07,32,11.40
2015,05,25,07,33,11.40
2015,05,25,07,34,11.50
2015,05,25,07,35,11.50
2015,05,25,07,36,11.60
2015,05,25,07,37,11.60
2015,05,25,07,38,11.60
2015,05,25,07,39,11.60
2015,05,25,07,40,11.70
2015,05,25,07,41,11.70
2015,05,25,07,42,11.70
2015,05,25,07,43,11.70
2015,05,25,07,44,11.80
2015,05,25,07,45,11.80
2015,05,25,07,46,11.80
2015,05,25,07,47,11.80
2015,05,25,07,48,11.90
2015,05,25,07,49,11.90
2015,05,25,07,50,11.90
2015,05,25,07,51,11.90
2015,05,25,07,52,11.90
2015,05,25,07,53,12.00
2015,05,25,07,54,12.00
2015,05,25,07,55,12.00
2015,05,25,07,56,12.10
2015,05,25,07,57,12.10
2015,05,25,07,58,12.10
2015,05,25,07,59,12.10
2015,05,25,08,00,12.10
2015,05,25,08,01,12.20
2015,05,25,08,02,12.20
2015,05,25,08,03,12.20
2015,05,25,08,04,12.20
2015,05,25,08,05,12.20
2015,05,25,08,06,12.20
2015,05,25,08,07,12.30
2015,05,25,08,08,12.30
2015,05,25,08,09,12.30
2015,05,25,08,10,12.30
2015,05,25,08,11,12.30
2015,05,25,08,12,12.30
2015,05,25,08,13,12.30
2015,05,25,08,14,12.30
2015,05,25,08,15,12.30
2015,05,25,08,16,12.40
2015,05,25,08,17,12.40
2015,05,25,08,18,12.40
2015,05,25,08,19,12.40
2015,05,25,08,20,12.40
2015,05,25,08,21,12.40
2015,05,25,08,22,12.40
2015,05,25,08,23,12.40
2015,05,25,08,24,12.40
2015,05,25,08,25,12.40
2015,05,25,08,26,12.40
2015,05,25,08,27,12.40
2015,05,25,08,28,12.50
2015,05,25,08,29,12.50
2015,05,25,08,30,12.50
2015,05,25,08,31,12.50
2015,05,25,08,32,12.60
2015,05,25,08,33,12.60
2015,05,25,08,34,12.60
2015,05,25,08,35,12.60
2015,05,25,08,36,12.60
2015,05,25,08,37,12.60
2015,05,25,08,38,12.60
2015,05,25,08,39,12.70
2015,05,25,08,40,12.70
2015,05,25,08,41,12.70
2015,05,25,08,42,12.70
2015,05,25,08,43,12.70
2015,05,25,08,44,12.70
2015,05,25,08,45,12.80
2015,05,25,08,46,12.80
2015,05,25,08,47,12.80
2015,05,25,08,48,12.80
2015,05,25,08,49,12.80
2015,05,25,08,50,12.90
2015,05,25,08,51,12.90
2015,05,25,08,52,12.90
2015,05,25,08,53,13.00
2015,05,25,08,54,13.10
2015,05,25,08,55,13.10
2015,05,25,08,56,13.10
2015,05,25,08,57,13.20
2015,05,25,08,58,13.20
2015,05,25,08,59,13.30
2015,05,25,09,00,13.30
2015,05,25,09,01,13.40
2015,05,25,09,02,13.40
2015,05,25,09,03,13.50
2015,05,25,09,04,13.60
2015,05,25,09,05,13.70
2015,05,25,09,06,13.80
2015,05,25,09,07,13.80
2015,05,25,09,08,13.90
2015,05,25,09,09,13.90
2015,05,25,09,10,14.00
2015,05,25,09,11,14.10
2015,05,25,09,12,14.10
2015,05,25,09,13,14.20
2015,05,25,09,14,14.30
2015,05,25,09,15,14.30
2015,05,25,09,16,14.40
2015,05,25,09,17,14.40
2015,05,25,09,18,14.40
2015,05,25,09,19,14.40
2015,05,25,09,20,14.40
2015,05,25,09,21,14.50
2015,05,25,09,22,14.50
2015,05,25,09,23,14.50
2015,05,25,09,24,14.50
2015,05,25,09,25,14.60
2015,05,25,09,26,14.60
2015,05,25,09,27,14.60
2015,05,25,09,28,14.60
2015,05,25,09,29,14.70
2015,05,25,09,30,14.80
2015,05,25,09,31,14.80
2015,05,25,09,32,14.90
2015,05,25,09,33,15.00
2015,05,25,09,34,15.10
2015,05,25,09,35,15.20
2015,05,25,09,36,15.30
2015,05,25,09,37,15.40
2015,05,25,09,38,15.40
2015,05,25,09,39,15.40
2015,05,25,09,40,15.50
2015,05,25,09,41,15.50
2015,05,25,09,42,15.60
2015,05,25,09,43,15.60
2015,05,25,09,44,15.60
2015,05,25,09,45,15.60
2015,05,25,09,46,15.60
2015,05,25,09,47,15.60
2015,05,25,09,48,15.60
2015,05,25,09,49,15.60
2015,05,25,09,50,15.60
2015,05,25,09,51,15.60
2015,05,25,09,52,15.60
2015,05,25,09,53,15.60
2015,05,25,09,54,15.60
2015,05,25,09,55,15.60
2015,05,25,09,56,15.60
2015,05,25,09,57,15.50
2015,05,25,09,58,15.50
2015,05,25,09,59,15.50
2015,05,25,10,00,15.60
2015,05,25,10,01,15.60
2015,05,25,10,02,15.60
2015,05,25,10,03,15.60
2015,05,25,10,04,15.60
2015,05,25,10,05,15.50
2015,05,25,10,06,15.40
2015,05,25,10,07,15.40
2015,05,25,10,08,15.30
2015,05,25,10,09,15.30
2015,05,25,10,10,15.20
2015,05,25,10,11,15.20
2015,05,25,10,12,15.30
2015,05,25,10,13,15.40
2015,05,25,10,14,15.50
2015,05,25,10,15,15.60
2015,05,25,10,16,15.70
2015,05,25,10,17,15.80
2015,05,25,10,18,15.90
2015,05,25,10,19,16.00
2015,05,25,10,20,16.00
2015,05,25,10,21,16.10
2015,05,25,10,22,16.20
2015,05,25,10,23,16.30
2015,05,25,10,24,16.40
2015,05,25,10,25,16.40
2015,05,25,10,26,16.40
2015,05,25,10,27,16.40
2015,05,25,10,28,16.30
2015,05,25,10,29,16.30
2015,05,25,10,30,16.30
2015,05,25,10,31,16.30
2015,05,25,10,32,16.40
2015,05,25,10,33,16.40
2015,05,25,10,34,16.40
2015,05,25,10,35,16.30
2015,05,25,10,36,16.30
2015,05,25,10,37,16.30
2015,05,25,10,38,16.30
2015,05,25,10,39,16.30
2015,05,25,10,40,16.30
2015,05,25,10,41,16.30
2015,05,25,10,42,16.40
2015,05,25,10,43,16.30
2015,05,25,10,44,16.30
2015,05,25,10,45,16.20
2015,05,25,10,46,16.30
2015,05,25,10,47,16.30
2015,05,25,10,48,16.30
2015,05,25,10,49,16.40
2015,05,25,10,50,16.40
2015,05,25,10,51,16.30
2015,05,25,10,52,16.30
2015,05,25,10,53,16.40
2015,05,25,10,54,16.40
2015,05,25,10,55,16.40
2015,05,25,10,56,16.40
2015,05,25,10,57,16.40
2015,05,25,10,58,16.50
2015,05,25,10,59,16.60
2015,05,25,11,00,16.60
2015,05,25,11,01,16.60
2015,05,25,11,02,16.60
2015,05,25,11,03,16.50
2015,05,25,11,04,16.50
2015,05,25,11,05,16.40
2015,05,25,11,06,16.50
2015,05,25,11,07,16.50
2015,05,25,11,08,16.50
2015,05,25,11,09,16.50
2015,05,25,11,10,16.60
2015,05,25,11,11,16.70
2015,05,25,11,12,16.80
2015,05,25,11,13,16.80
2015,05,25,11,14,16.80
2015,05,25,11,15,16.90
2015,05,25,11,16,17.00
2015,05,25,11,17,17.10
2015,05,25,11,18,17.20
2015,05,25,11,19,17.30
2015,05,25,11,20,17.30
2015,05,25,11,21,17.30
2015,05,25,11,22,17.40
2015,05,25,11,23,17.50
2015,05,25,11,24,17.60
2015,05,25,11,25,17.60
2015,05,25,11,26,17.60
2015,05,25,11,27,17.50
2015,05,25,11,28,17.50
2015,05,25,11,29,17.50
2015,05,25,11,30,17.60
2015,05,25,11,31,17.60
2015,05,25,11,32,17.60
2015,05,25,11,33,17.60
2015,05,25,11,34,17.60
2015,05,25,11,35,17.60
2015,05,25,11,36,17.50
2015,05,25,11,37,17.50
2015,05,25,11,38,17.40
2015,05,25,11,39,17.40
2015,05,25,11,40,17.30
2015,05,25,11,41,17.30
2015,05,25,11,42,17.40
2015,05,25,11,43,17.40
2015,05,25,11,44,17.40
2015,05,25,11,45,17.40
2015,05,25,11,46,17.40
2015,05,25,11,47,17.40
2015,05,25,11,48,17.40
2015,05,25,11,49,17.30
2015,05,25,11,50,17.30
2015,05,25,11,51,17.30
2015,05,25,11,52,17.30
2015,05,25,11,53,17.30
2015,05,25,11,54,17.30
2015,05,25,11,55,17.40
2015,05,25,11,56,17.50
2015,05,25,11,57,17.50
2015,05,25,11,58,17.60
2015,05,25,11,59,17.50
2015,05,25,12,00,17.50
2015,05,25,12,01,17.40
2015,05,25,12,02,17.40
2015,05,25,12,03,17.50
2015,05,25,12,04,17.60
2015,05,25,12,05,17.70
2015,05,25,12,06,17.80
2015,05,25,12,07,17.90
2015,05,25,12,08,18.00
2015,05,25,12,09,18.10
2015,05,25,12,10,18.20
2015,05,25,12,11,18.30
2015,05,25,12,12,18.30
2015,05,25,12,13,18.30
2015,05,25,12,14,18.30
2015,05,25,12,15,18.40
2015,05,25,12,16,18.40
2015,05,25,12,17,18.40
2015,05,25,12,18,18.40
2015,05,25,12,19,18.40
2015,05,25,12,20,18.40
2015,05,25,12,21,18.40
2015,05,25,12,22,18.40
2015,05,25,12,23,18.30
2015,05,25,12,24,18.30
2015,05,25,12,25,18.30
2015,05,25,12,26,18.30
2015,05,25,12,27,18.30
2015,05,25,12,28,18.40
2015,05,25,12,29,18.50
2015,05,25,12,30,18.60
2015,05,25,12,31,18.80
2015,05,25,12,32,18.80
2015,05,25,12,33,18.90
2015,05,25,12,34,19.00
2015,05,25,12,35,19.10
2015,05,25,12,36,19.10
2015,05,25,12,37,19.20
2015,05,25,12,38,19.20
2015,05,25,12,39,19.20
2015,05,25,12,40,19.30
2015,05,25,12,41,19.30
2015,05,25,12,42,19.30
2015,05,25,12,43,19.30
2015,05,25,12,44,19.30
2015,05,25,12,45,19.40
2015,05,25,12,46,19.40
2015,05,25,12,47,19.50
2015,05,25,12,48,19.60
2015,05,25,12,49,19.60
2015,05,25,12,50,19.60
2015,05,25,12,51,19.60
2015,05,25,12,52,19.60
2015,05,25,12,53,19.70
2015,05,25,12,54,19.70
2015,05,25,12,55,19.70
2015,05,25,12,56,19.80
2015,05,25,12,57,19.80
2015,05,25,12,58,19.80
2015,05,25,12,59,19.80
2015,05,25,13,00,19.80
2015,05,25,13,01,19.80
2015,05,25,13,02,19.80
2015,05,25,13,03,19.80
2015,05,25,13,04,19.80
2015,05,25,13,05,19.70
2015,05,25,13,06,19.70
2015,05,25,13,07,19.70
2015,05,25,13,08,19.70
2015,05,25,13,09,19.70
2015,05,25,13,10,19.70
2015,05,25,13,11,19.80
2015,05,25,13,12,19.90
2015,05,25,13,13,19.90
2015,05,25,13,14,19.90
2015,05,25,13,15,19.90
2015,05,25,13,16,19.80
2015,05,25,13,17,19.80
2015,05,25,13,18,19.70
2015,05,25,13,19,19.70
2015,05,25,13,20,19.70
2015,05,25,13,21,19.70
2015,05,25,13,22,19.70
2015,05,25,13,23,19.70
2015,05,25,13,24,19.70
2015,05,25,13,25,19.70
2015,05,25,13,26,19.70
2015,05,25,13,27,19.70
2015,05,25,13,28,19.70
2015,05,25,13,29,19.80
2015,05,25,13,30,19.80
2015,05,25,13,31,19.90
2015,05,25,13,32,19.90
2015,05,25,13,33,19.90
2015,05,25,13,34,19.90
2015,05,25,13,35,19.90
2015,05,25,13,36,19.90
2015,05,25,13,37,20.00
2015,05,25,13,38,20.10
2015,05,25,13,39,20.10
2015,05,25,13,40,20.20
2015,05,25,13,41,20.20
2015,05,25,13,42,20.10
2015,05,25,13,43,20.00
2015,05,25,13,44,19.90
2015,05,25,13,45,19.80
2015,05,25,13,46,19.80
2015,05,25,13,47,19.90
2015,05,25,13,48,20.00
2015,05,25,13,49,20.00
2015,05,25,13,50,20.10
2015,05,25,13,51,20.20
2015,05,25,13,52,20.30
2015,05,25,13,53,20.40
2015,05,25,13,54,20.40
2015,05,25,13,55,20.40
2015,05,25,13,56,20.40
2015,05,25,13,57,20.40
2015,05,25,13,58,20.40
2015,05,25,13,59,20.40
2015,05,25,14,00,20.30
2015,05,25,14,01,20.30
2015,05,25,14,02,20.30
2015,05,25,14,03,20.30
2015,05,25,14,04,20.30
2015,05,25,14,05,20.20
2015,05,25,14,06,20.20
2015,05,25,14,07,20.10
2015,05,25,14,08,20.10
2015,05,25,14,09,20.10
2015,05,25,14,10,20.00
2015,05,25,14,11,20.00
2015,05,25,14,12,19.90
2015,05,25,14,13,19.90
2015,05,25,14,14,19.90
2015,05,25,14,15,20.00
2015,05,25,14,16,20.00
2015,05,25,14,17,20.00
2015,05,25,14,18,20.00
2015,05,25,14,19,20.10
2015,05,25,14,20,20.10
2015,05,25,14,21,20.10
2015,05,25,14,22,20.10
2015,05,25,14,23,20.10
2015,05,25,14,24,20.10
2015,05,25,14,25,20.10
2015,05,25,14,26,20.10
2015,05,25,14,27,20.10
2015,05,25,14,28,20.10
2015,05,25,14,29,20.10
2015,05,25,14,30,20.20
2015,05,25,14,31,20.20
2015,05,25,14,32,20.30
2015,05,25,14,33,20.30
2015,05,25,14,34,20.30
2015,05,25,14,35,20.30
2015,05,25,14,36,20.40
2015,05,25,14,37,20.40
2015,05,25,14,38,20.40
2015,05,25,14,39,20.40
2015,05,25,14,40,20.40
2015,05,25,14,41,20.40
2015,05,25,14,42,20.40
2015,05,25,14,43,20.40
2015,05,25,14,44,20.50
2015,05,25,14,45,20.50
2015,05,25,14,46,20.50
2015,05,25,14,47,20.60
2015,05,25,14,48,20.60
2015,05,25,14,49,20.60
2015,05,25,14,50,20.60
2015,05,25,14,51,20.60
2015,05,25,14,52,20.70
2015,05,25,14,53,20.70
2015,05,25,14,54,20.80
2015,05,25,14,55,20.80
2015,05,25,14,56,20.90
2015,05,25,14,57,20.90
2015,05,25,14,58,20.90
2015,05,25,14,59,20.80
2015,05,25,15,00,20.80
2015,05,25,15,01,20.70
2015,05,25,15,02,20.70
2015,05,25,15,03,20.70
2015,05,25,15,04,20.70
2015,05,25,15,05,20.70
2015,05,25,15,06,20.80
2015,05,25,15,07,20.80
2015,05,25,15,08,20.90
2015,05,25,15,09,20.90
2015,05,25,15,10,20.90
2015,05,25,15,11,20.90
2015,05,25,15,12,20.80
2015,05,25,15,13,20.80
2015,05,25,15,14,20.80
2015,05,25,15,15,20.80
2015,05,25,15,16,20.80
2015,05,25,15,17,20.80
2015,05,25,15,18,20.80
2015,05,25,15,19,20.80
2015,05,25,15,20,20.90
2015,05,25,15,21,20.90
2015,05,25,15,22,20.90
2015,05,25,15,23,20.90
2015,05,25,15,24,20.90
2015,05,25,15,25,20.90
2015,05,25,15,26,20.90
2015,05,25,15,27,20.90
2015,05,25,15,28,20.90
2015,05,25,15,29,20.80
2015,05,25,15,30,20.80
2015,05,25,15,31,20.80
2015,05,25,15,32,20.80
2015,05,25,15,33,20.80
2015,05,25,15,34,20.80
2015,05,25,15,35,20.80
2015,05,25,15,36,20.80
2015,05,25,15,37,20.80
2015,05,25,15,38,20.80
2015,05,25,15,39,20.60
2015,05,25,15,40,20.60
2015,05,25,15,41,20.50
2015,05,25,15,42,20.40
2015,05,25,15,43,20.40
2015,05,25,15,44,20.40
2015,05,25,15,45,20.40
2015,05,25,15,46,20.40
2015,05,25,15,47,20.40
2015,05,25,15,48,20.40
2015,05,25,15,49,20.40
2015,05,25,15,50,20.40
2015,05,25,15,51,20.40
2015,05,25,15,52,20.40
2015,05,25,15,53,20.30
2015,05,25,15,54,20.20
2015,05,25,15,55,20.10
2015,05,25,15,56,20.00
2015,05,25,15,57,20.00
2015,05,25,15,58,19.90
2015,05,25,15,59,19.90
2015,05,25,16,00,19.90
2015,05,25,16,01,19.90
2015,05,25,16,02,19.90
2015,05,25,16,03,19.90
2015,05,25,16,04,19.90
2015,05,25,16,05,19.90
2015,05,25,16,06,19.80
2015,05,25,16,07,19.80
2015,05,25,16,08,19.70
2015,05,25,16,09,19.70
2015,05,25,16,10,19.70
2015,05,25,16,11,19.70
2015,05,25,16,12,19.70
2015,05,25,16,13,19.70
2015,05,25,16,14,19.70
2015,05,25,16,15,19.70
2015,05,25,16,16,19.70
2015,05,25,16,17,19.70
2015,05,25,16,18,19.80
2015,05,25,16,19,19.80
2015,05,25,16,20,19.70
2015,05,25,16,21,19.70
2015,05,25,16,22,19.70
2015,05,25,16,23,19.70
2015,05,25,16,24,19.70
2015,05,25,16,25,19.80
2015,05,25,16,26,19.80
2015,05,25,16,27,19.80
2015,05,25,16,28,19.80
2015,05,25,16,29,19.80
2015,05,25,16,30,19.80
2015,05,25,16,31,19.80
2015,05,25,16,32,19.80
2015,05,25,16,33,19.80
2015,05,25,16,34,19.80
2015,05,25,16,35,19.80
2015,05,25,16,36,19.80
2015,05,25,16,37,19.90
2015,05,25,16,38,19.90
2015,05,25,16,39,19.90
2015,05,25,16,40,19.90
2015,05,25,16,41,19.80
2015,05,25,16,42,19.70
2015,05,25,16,43,19.60
2015,05,25,16,44,19.50
2015,05,25,16,45,19.50
2015,05,25,16,46,19.50
2015,05,25,16,47,19.40
2015,05,25,16,48,19.50
2015,05,25,16,49,19.50
2015,05,25,16,50,19.50
2015,05,25,16,51,19.50
2015,05,25,16,52,19.50
2015,05,25,16,53,19.50
2015,05,25,16,54,19.50
2015,05,25,16,55,19.50
2015,05,25,16,56,19.50
2015,05,25,16,57,19.50
2015,05,25,16,58,19.60
2015,05,25,16,59,19.60
2015,05,25,17,00,19.60
2015,05,25,17,01,19.60
2015,05,25,17,02,19.60
2015,05,25,17,03,19.60
2015,05,25,17,04,19.70
2015,05,25,17,05,19.80
2015,05,25,17,06,19.90
2015,05,25,17,07,20.00
2015,05,25,17,08,20.10
2015,05,25,17,09,20.10
2015,05,25,17,10,20.10
2015,05,25,17,11,20.10
2015,05,25,17,12,20.10
2015,05,25,17,13,20.10
2015,05,25,17,14,20.10
2015,05,25,17,15,20.00
2015,05,25,17,16,19.90
2015,05,25,17,17,19.80
2015,05,25,17,18,19.80
2015,05,25,17,19,19.70
2015,05,25,17,20,19.60
2015,05,25,17,21,19.60
2015,05,25,17,22,19.50
2015,05,25,17,23,19.50
2015,05,25,17,24,19.50
2015,05,25,17,25,19.60
2015,05,25,17,26,19.60
2015,05,25,17,27,19.60
2015,05,25,17,28,19.70
2015,05,25,17,29,19.70
2015,05,25,17,30,19.70
2015,05,25,17,31,19.70
2015,05,25,17,32,19.70
2015,05,25,17,33,19.60
2015,05,25,17,34,19.60
2015,05,25,17,35,19.60
2015,05,25,17,36,19.70
2015,05,25,17,37,19.70
2015,05,25,17,38,19.70
2015,05,25,17,39,19.70
2015,05,25,17,40,19.80
2015,05,25,17,41,19.80
2015,05,25,17,42,19.80
2015,05,25,17,43,19.80
2015,05,25,17,44,19.80
2015,05,25,17,45,19.80
2015,05,25,17,46,19.80
2015,05,25,17,47,19.80
2015,05,25,17,48,19.80
2015,05,25,17,49,19.80
2015,05,25,17,50,19.80
2015,05,25,17,51,19.80
2015,05,25,17,52,19.80
2015,05,25,17,53,19.80
2015,05,25,17,54,19.70
2015,05,25,17,55,19.60
2015,05,25,17,56,19.60
2015,05,25,17,57,19.60
2015,05,25,17,58,19.50
2015,05,25,17,59,19.50
2015,05,25,18,00,19.50
2015,05,25,18,01,19.40
2015,05,25,18,02,19.40
2015,05,25,18,03,19.40
2015,05,25,18,04,19.40
2015,05,25,18,05,19.40
2015,05,25,18,06,19.40
2015,05,25,18,07,19.40
2015,05,25,18,08,19.40
2015,05,25,18,09,19.40
2015,05,25,18,10,19.40
2015,05,25,18,11,19.40
2015,05,25,18,12,19.40
2015,05,25,18,13,19.40
2015,05,25,18,14,19.40
2015,05,25,18,15,19.40
2015,05,25,18,16,19.30
2015,05,25,18,17,19.30
2015,05,25,18,18,19.30
2015,05,25,18,19,19.30
2015,05,25,18,20,19.30
2015,05,25,18,21,19.30
2015,05,25,18,22,19.30
2015,05,25,18,23,19.30
2015,05,25,18,24,19.30